www.pogodaiklimat.ru

Погода и климат >> Архив погоды >> Украина >> Харьков


АРХИВ ПОГОДЫ в Харькове

Время (UTC), дата Ветер
(напр.,м/с)
 
Видим.   Явления Облачность Т
(С)
Тd
(С)
f
(%)
Тe
(С)
Тes
(С)
Комфортность P
(гПа)
Po
(гПа)
Тmin
(С)
Tmax
(С)
R
(мм)
R24
(мм)
S
(см)
12 12.08 С 1 10 км 4/4 1000 м
[Cu hum]
+28.5 +10.8 33 +29 +36 жарко 1017.7 1000.1
15 12.08 С 4 10 км 3/3 1000 м
[Sc diur, vesp]
+28.5 +9.8 31 +29 +29 жарко 1017.2 999.6
18 12.08 В 3 10 км 3/0
[Ac trans]
+22.9 +10.6 46 +25 +25 комфорт 1018.1 1000.2 +29.2
21 12.08 В 2 10 км ясно +19.4 +10.3 56 +21 +21 комфорт 1018.6 1000.5
00 13.08 В 3 10 км ясно +17.0 +10.4 65 +17 +17 по сезону 1019.0 1000.7
03 13.08 ЮВ 3 10 км ясно +15.7 +11.2 75 +15 +15 прохладно 1018.9 1000.5
06 13.08 Ю 3 10 км 3/0
[Ci fib]
+23.2 +13.0 53 +26 +32 жарко 1018.3 1000.4 +14.8
09 13.08 ЮЗ 5 10 км 4/4 1000 м
[Cu hum]
+30.2 +12.7 34 +31 +36 жарко 1016.9 999.4
12 13.08 ЮЗ 6 10 км 3/3 1000 м
[Cu hum]
+31.4 +11.4 29 +32 +34 жарко 1015.3 997.9
15 13.08 Ю 5 10 км ясно +31.4 +10.9 28 +31 +32 жарко 1014.0 996.6
18 13.08 Ю 3 10 км 3/0
[Ac trans]
+27.0 +12.0 39 +28 +28 жарко 1015.1 997.5 +32.4
21 13.08 Ю 3 10 км ясно +23.1 +12.9 53 +26 +26 жарко 1014.9 997.1
00 14.08 ЮВ 3 10 км ясно +22.0 +12.3 54 +24 +24 комфорт 1014.8 996.9
03 14.08 Ю 3 10 км 4/0
[Ac trans]
+21.4 +12.0 55 +24 +24 комфорт 1015.2 997.3
06 14.08 ЮЗ 5 10 км 3/0
[Ac trans]
+25.9 +12.9 45 +28 +31 жарко 1015.0 997.3 +20.4
09 14.08 ЮЗ 5 10 км 3/0
[Ac trans]
+31.0 +11.8 31 +31 +38 жарко 1013.9 996.5
12 14.08 ЮЗ 3 10 км ясно +33.4 +12.1 27 +33 +42 жарко 1012.4 995.2
15 14.08 Ю 4 10 км ясно +32.7 +12.2 29 +33 +34 жарко 1011.3 994.1
18 14.08 ЮВ 3 10 км ясно +26.0 +13.3 45 +28 +28 жарко 1011.5 993.9 +34.1
21 14.08 В 3 10 км ясно +20.8 +13.3 62 +24 +24 комфорт 1011.4 993.5
00 15.08 В 2 10 км ясно +19.3 +13.0 67 +21 +21 комфорт 1011.8 993.8
03 15.08 В 4 10 км ясно +16.9 +12.4 75 +16 +17 по сезону 1011.6 993.4
06 15.08 ЮВ 4 10 км 4/0
[Ci fib]
+25.6 +11.2 40 +27 +31 жарко 1010.8 993.2 +16.1
09 15.08 ЮВ 5 10 км 6/0
[Ci fib]
+31.6 +6.2 20 +30 +36 жарко 1009.2 991.9
12 15.08 ЮВ 5 10 км 8/0
[Ci]
+33.3 +5.4 18 +31 +36 жарко 1007.9 990.7
15 15.08 ЮВ 4 10 км 9/0
[Ac trans Ci]
+31.8 +6.6 21 +30 +31 жарко 1007.4 990.2
18 15.08 В 2 10 км 9/0
[Ac trans Ci fib]
+27.1 +9.0 32 +27 +27 жарко 1008.0 990.5 +33.6
21 15.08 СЗ 2 10 км 9/0
[Ac trans]
+24.6 +12.1 46 +26 +26 жарко 1007.2 989.6
00 16.08 СЗ 5 10 км 10/0
[Ac und]
+22.4 +10.7 47 +24 +24 комфорт 1007.9 990.1
03 16.08 СЗ 2 10 км 4/0
[Ac trans]
+20.1 +11.3 57 +22 +22 комфорт 1007.4 989.5
06 16.08 З 3 10 км 6/0
[Ac trans Ci fib]
+26.0 +12.0 42 +27 +32 жарко 1006.5 989.0 +20.1
09 16.08 З 3 10 км 5/0
[Ci fib]
+30.2 +11.1 31 +31 +41 жарко 1005.5 988.2
12 16.08 З 3 10 км 5/0
[Ac trans Ci fib]
+32.5 +11.3 27 +32 +39 жарко 1004.7 987.6
15 16.08 З 3 10 км 8/0
[Ac trans Ci]
+30.3 +12.7 34 +31 +32 жарко 1004.7 987.5
18 16.08 З 3 10 км 9/0
[Ac trans Ci]
+26.4 +13.4 45 +28 +28 жарко 1005.9 988.4 +32.5
21 16.08 З 4 10 км 9/0
[Ac trans Ci]
+22.7 +16.1 66 +27 +27 душно 1006.8 989.1
00 17.08 З 3 10 км 9/3 600 м
[Cb calv Ac trans]
+20.1 +15.9 77 +23 +23 комфорт 1007.2 989.3
03 17.08 З 2 10 км {ливн. осадки} 9/0
[Ac trans]
+18.5 +16.2 86 +20 +20 тепло 1006.9 989.0
06 17.08 З 2 10 км {ливн. осадки} 9/6 300 м
[St Ac trans]
+19.3 +16.7 85 +22 +23 комфорт 1007.7 989.8 +18.5 0.0
09 17.08 ЮЗ 3 10 км 9/8 480 м
[Cb cap Ac trans]
+21.3 +17.3 78 +25 +27 комфорт 1007.8 990.0
12 17.08 З 5 10 км 9/9 600 м
[Cu hum]
+22.5 +17.2 72 +27 +28 душно 1007.5 989.8
15 17.08 ЮЗ 4 10 км {ливн. осадки} 9/9 330 м
[Sc]
+19.7 +17.3 86 +22 +22 комфорт 1008.6 990.7
18 17.08 З 2 10 км {ливн. осадки} 8/8 630 м
[Sc]
+18.3 +16.3 88 +19 +19 по сезону 1009.1 991.1 +23.6 0.0
21 17.08 З 2 10 км в посл. час ливневой дождь 9/9 240 м
[Sc]
+18.6 +17.0 90 +20 +20 тепло 1009.2 991.2
00 18.08 З 2 10 км {ливн. осадки} 8/8 240 м
[Sc]
+18.2 +16.5 90 +19 +19 тепло 1009.6 991.6
03 18.08 З 2 8000 м в посл. час ливневой дождь 9/9 210 м
[Sc]
+17.4 +16.7 96 +18 +18 по сезону 1009.8 991.7
06 18.08 З 3 10 км {ливн. осадки} 9/8 300 м
[Cb cap Ac trans]
+18.4 +16.4 88 +19 +20 по сезону 1010.7 992.7 +17.2 4
09 18.08 СЗ 3 10 км 8/8 1050 м
[Cu med, cong]
+21.0 +14.2 65 +24 +27 комфорт 1011.3 993.4
12 18.08 З 5 10 км 8/4 1000 м
[Cu med, cong Ci]
+21.6 +13.7 61 +24 +27 комфорт 1012.4 994.5
15 18.08 СЗ 4 10 км 9/3 600 м
[Sc diur, vesp Ac trans Cc]
+19.9 +13.1 65 +22 +22 комфорт 1013.7 995.7
18 18.08 СЗ 1 10 км 8/0
[Ci fib]
+17.8 +12.6 72 +19 +19 по сезону 1014.9 996.7 +23.1
21 18.08 З 1 10 км 6/0
[Ci fib]
+15.6 +12.9 84 +16 +16 по сезону 1016.0 997.7
00 19.08 С 1 10 км 6/0
[Ci]
+14.3 +12.8 91 +15 +15 по сезону 1016.8 998.4
03 19.08 СЗ 2 10 км 5/0
[Ac trans]
+13.1 +12.0 93 +12 +12 холодно 1018.0 999.5
06 19.08 С 2 10 км 3/3 1000 м
[Cu hum]
+19.0 +13.4 70 +21 +25 комфорт 1018.5 1000.4 +12.7
09 19.08 С 3 10 км 8/5 1050 м
[Cu med, cong Ci fib]
+22.4 +13.0 55 +25 +30 комфорт 1018.5 1000.6

 

Местоположение метеостанции Харьков (Харьковская область, Украина): широта 49.97 долгота 36.13 высота над уровнем моря 155 м.

В архиве по умолчанию представлена погода в Харькове за последнюю неделю. Архивные данные за месяц целиком и за предыдущие месяцы, начиная с января 2011 года, Вы можете получить, выбрав интересующий диапазон дат из раскрывающегося списка и нажав кнопку "Ввод!".


*Определитесь, кто Вы:
робот инопланетянин человек

Внимание! Время в таблицах - всемирное. Для получения местного времени необходимо прибавить поправку, которая равна 2 ч.

Смотрите также архив погоды в соседних городах и на ближайших метеорологических станциях:

Погода в Золочеве (Львовская область, Украина) (39 км)
Погода в Боходухове (Харьковская область, Украина) (50 км)
Погода в Комсомольском (Донецкая область, Украина) (50 км)
Погода в Коломаке (Харьковская область, Украина) (66 км)
Погода в Белгороде (Белгородская область, Россия) (80 км)
Погода в Краснограде (Харьковская область, Украина) (82 км)
Погода в Великом Бурлуке (Харьковская область, Украина) (90 км)
Погода в Готне (Белгородская область, Россия) (96 км)
Погода в Купянске (Харьковская область, Украина) (119 км)
Погода в Лозовой (Харьковская область, Украина) (120 км)

Пояснения к столбцам:

Ветер - указаны скорость ветра в м/с - средняя за 10 мин, порывы в срок и между сроками (в фигурных скобках) и направление, откуда дует ветер: С - северный, СВ - северо-восточный, В - восточный, ЮВ - юго-восточный, Ю - южный, ЮЗ - юго-западный, З - западный, СЗ - северо-западный.
Видимость - горизонтальная дальность видимости в метрах или километрах. При видимости от 1 до 10 км при отсутствии осадков обычно наблюдается дымка, при ухудшении видимости до 1 км и менее - туман. В сухую погоду видимость может ухудшаться дымом, пылью или мглою.
Явления - указаны атмосферные явления, наблюдавшиеся в срок или в последний час перед сроком; фигурными скобками обозначены явления, наблюдавшиеся между сроками (за 1-3 часа до срока); квадратными скобками обозначены град или гололедные отложения с указанием их диаметра в мм.
Облачность - указаны через наклонную черту общая и нижняя облачность в баллах и высота нижней границы облаков в метрах; квадратными скобками обозначены формы облаков: Ci - перистые, Cs - перисто-слоистые, Cc - перисто-кучевые, Ac - высококучевые, As - высокослоистые, Sc - слоисто-кучевые, Ns - слоисто-дождевые, Cu - кучевые, Cb - кучево-дождевые. Подробнее классификацию облаков см. в Атласе облаков (PDF).
T - Температура воздуха - температура, измеренная на высоте 2 м над землей.
Td - Температура точки росы - температура, при понижении до которой содержащийся в воздухе водяной пар достигнет насыщения.
f - Относительная влажность воздуха - влажноcть воздуха, измеренная на высоте 2 м над землей.
Te - Эффективная температура - температура, которую ощущает одетый по сезону человек в тени. Характеристика душности погоды. При расчете учитывается влияние влажности воздуха и скорости ветра на теплоощущения человека.
Tes - Эффективная температура на солнце - температура, которую ощущает человек, с поправкой на солнечный нагрев. Характеристика знойности погоды. Зависит от высоты солнца над горизонтом, облачности и скорости ветра. Ночью, в пасмурную погоду, а также при ветре 12 м/с и более поправка равна нулю.
P - Атмосферное давление - приведенное к уровню моря атмосферное давление.
Po - Атмосферное давление - измеренное на уровне метеостанции атмосферное давление.
Tmin - Минимальная температура - минимум температуры воздуха на высоте 2 м над землей.
Tmax - Максимальная температура - максимум температуры воздуха на высоте 2 м над землей.
R - Количество осадков - Количество выпавших осадков за период времени, мм. При наведении курсора мыши на число - период времени, за который выпало указанное количество осадков.
R24 - Количество осадков - Количество выпавших осадков за 24 часа, мм.
S - Снежный покров - Высота снежного покрова, см. При наведении курсора мыши на число - состояние снежного покрова и степень покрытия местности в баллах.